Location: La Pernelle
(49.6188°N, 1.2999°W)
Time: 08:49:20
(UTC+00:00)

Cosmos 1697 Rocket - Pass Details

Date: 12 June 2021
Orbit: 831 x 845 km, 71.0° (Epoch: 03 August)

Event Time Altitude Azimuth Distance (km) Brightness Sun altitude
Rises 20:53:54 0° 222° (SW) 3,366 5.8 -5.7°
Reaches altitude 10° 20:56:23 10° 227° (SW) 2,437 5.1 -6.0°
Maximum altitude 21:01:50 54° 305° (NW) 1,010 3.6 -6.6°
Drops below altitude 10° 21:07:22 10° 22° (NNE) 2,458 5.5 -7.2°
Sets 21:09:53 0° 28° (NNE) 3,398 6.2 -7.4°
